Regional Weather Roundup
Issued by NWS

Home | Current Version | Previous Version | Graphics & Text | Print | Product List | Glossary On
Versions: 1 2 3 4 5 6 7 8 9 10 11 12 13 14 15 16 17 18 19 20 21 22 23 24 25 26 27 28 29 30 31 32 33 34 35 36 37 38 39 40 41 42 43 44 45 46 47 48 49 50
000
ASUS43 KIND 181859
RWRIN

WEATHER ROUNDUP FOR INDIANA
NATIONAL WEATHER SERVICE INDIANAPOLIS IN
300 PM EDT FRI APR 18 2014

NOTE: "FAIR" INDICATES FEW OR NO CLOUDS BELOW 12,000 FEET WITH NO
SIGNIFICANT WEATHER AND/OR OBSTRUCTIONS TO VISIBILITY.

* - STATION DOES NOT REPORT WEATHER SUCH AS PRECIPITATION OR FOG.

+ - STATION NOT QUALITY CONTROLLED BY THE NATIONAL WEATHER SERVICE.
    USE DATA WITH CAUTION...ESPECIALLY DEWPOINT AND RELATIVE
    HUMIDITY OBSERVATIONS.

INZ001>003-010>013-019-020-182000-
NORTHWEST INDIANA

CITY           SKY/WX    TMP DP  RH WIND       PRES   REMARKS
GARY /AIRPORT/ MOSUNNY   45  36  70 N12       30.37S
LA PORTE +     SUNNY     52  37  57 N13       30.33F
MONTICELLO +   MOSUNNY   66  40  39 NW12      30.27F
RENSSELAER +   SUNNY     63  37  39 NW10      30.30S
VALPARAISO     SUNNY     51  36  56 NW12      30.34R

$$

LMZ046-743>745-182000-
SOUTHERN LAKE MICHIGAN

STATION/POSITION TIME  TEMP WIND        PRES
                       AIR  DIR/SP/G
                 (UTC) (F)  (DEG/KT/KT) (MB)
MICHIGAN CITY    1800   40  340/ 11/ 13   N/A

$$

INZ004-005-014>016-021>024-182000-
NORTH CENTRAL INDIANA

CITY           SKY/WX    TMP DP  RH WIND       PRES   REMARKS
ELKHART        SUNNY     61  36  39 NW12G17   30.30R
GOSHEN         SUNNY     64  39  39 NW12      30.27F
PERU/GRISSOM   MOSUNNY   66  42  41 W9        30.27F
SOUTH BEND     SUNNY     57  39  51 NW16      30.33R

$$

INZ006>009-017-018-025>027-182000-
NORTHEAST INDIANA

CITY           SKY/WX    TMP DP  RH WIND       PRES   REMARKS
ANGOLA *+      MOSUNNY   64  43  45 W8        30.26S
FORT WAYNE     PTSUNNY   68  39  34 W13       30.27S

$$

INZ028-029-035-036-043>045-051>053-182000-
WEST CENTRAL INDIANA

CITY           SKY/WX    TMP DP  RH WIND       PRES   REMARKS
GREENCASTLE +  MOSUNNY   68  41  37 CALM      30.27S
LAFAYETTE      PTSUNNY   65  40  39 W8G17     30.28F
TERRE HAUTE    SUNNY     69  40  34 NW8       30.28S

$$

INZ030>032-037>040-046>048-054>057-064-065-182000-
CENTRAL INDIANA

CITY           SKY/WX    TMP DP  RH WIND       PRES   REMARKS
ANDERSON       PTSUNNY   68  36  30 W12       30.27F
INDIANAPOLIS   MOSUNNY   68  38  33 W8        30.26S
-EAGLE CREEK   MOSUNNY   68  40  35 NW10      30.26S
KOKOMO *+        N/A     66  43  42 NW13      30.27S
MT COMFORT *+  SUNNY     70  41  35 W9        30.27S
SHELBYVILLE    MOSUNNY   70  39  32 W8        30.26F

$$

INZ033-034-041-042-049-050-058-059-182000-
EAST CENTRAL INDIANA

CITY           SKY/WX    TMP DP  RH WIND       PRES   REMARKS
MUNCIE         MOSUNNY   69  38  32 W10G20    30.26S

$$

INZ060-061-067>069-081>083-085>088-182000-
SOUTHWEST INDIANA

CITY           SKY/WX    TMP DP  RH WIND       PRES   REMARKS
EVANSVILLE     SUNNY     73  36  25 N8        30.26F
HUNTINGBURG *+ MOSUNNY   70  41  35 S5        30.26F

$$

INZ062-063-066-070>080-084-089>092-182000-
SOUTH CENTRAL AND SOUTHEAST INDIANA

CITY           SKY/WX    TMP DP  RH WIND       PRES   REMARKS
BLOOMINGTON    PTSUNNY   67  36  31 W3        30.26F

$$




USA.gov is the U.S. government's official web portal to all federal, state and local government web resources and services.